Other Public Products
Issued by NWS Grand Forks, ND

Home | Current Version | Previous Version | Graphics & Text | Print | Product List | Glossary On
Versions: 1 2 3 4 5 6 7 8 9 10 11 12 13 14 15 16 17 18 19 20 21 22 23 24 25 26 27 28 29 30 31 32 33 34 35 36 37 38 39 40 41 42 43 44 45 46 47 48 49 50
000
FPUS83 KFGF 050831
OPUFGF
PRAIRIE TO PINES WEATHER ROUNDUP
NATIONAL WEATHER SERVICE EASTERN NORTH DAKOTA/GRAND FORKS ND
300 AM CDT SAT SEP 05 2015

 **SATELLITE DATA USED TO AUGMENT SKY COVER AT AUTOMATED STATIONS**
 *****  WEATHER ACROSS EASTERN NORTH DAKOTA  *****

CITY           SKY/WX    TMP DP  RH WIND       PRES   REMARKS
GRAND FORKS    CLOUDY    64  64 100 N10       29.88R FOG
GRAND FORKS AF FOG       64  63  94 N8        29.90R VSB 1/2
GRAND CITY NWS   N/A     64 N/A N/A VRB7        N/A
BUXTON         NOT AVBL
DEVILS LAKE    CLOUDY    63  57  82 NE8       29.91R
FARGO          CLEAR     72  68  87 SE7       29.83F
WAHPETON ARPT  MOSUNNY   72  66  83 E7        29.84S
$$

 *****  WEATHER ACROSS CENTRAL AND WESTERN NORTH DAKOTA  *****

CITY           SKY/WX    TMP DP  RH WIND       PRES   REMARKS
JAMESTOWN      FOG       65  64  97 CALM      29.86R VSB 3/4
BISMARCK       PTCLDY    68  67  96 NE7       29.84S
MINOT          CLOUDY    61  59  93 NE9       29.91R
MINOT AFB      DRIZZLE   60  60 100 NE12      29.90F FOG
GARRISON         N/A     63  61  93 NE8       29.88F
WILLISTON      HVY RAIN  58  57  97 N12       29.93R FOG
DICKINSON      LGT RAIN  63  60  90 NE7       29.88F
HETTINGER      MOCLDY    66  62  87 N16       29.89R
$$

 *****  OTHER OBSERVATIONS NORTHEAST NORTH DAKOTA  *****

CITY           SKY/WX    TMP DP  RH WIND       PRES   REMARKS
WALHALLA       FAIR      61  61 100 MISG      29.92S FOG
LANGDON        FOG       61  61 100 N10       29.94R VSB<1/4
CAVALIER       CLOUDY    63  63 100 N9        29.91R FOG
GRAFTON        CLOUDY    63  63 100 N10       29.91S FOG
CANDO          FOG       59  59 100 NE10      29.93S VSB 3/4
FORT TOTTEN      N/A     64  64 100 N6        29.95S
ROLLA          CLOUDY    57  57 100 N13       29.96F
RUGBY          CLOUDY    61  59  94 NE15      29.91F
 ***** THE ABOVE OBSERVATIONS ARE NON NWS ARE NOT QUALITY
        CONTROLLED AND MAY MIS-REPORT RAIN FOR SNOW...
$$

 *****  OTHER OBSERVATIONS SOUTHEAST NORTH DAKOTA *****

CITY           SKY/WX    TMP DP  RH WIND       PRES   REMARKS
COOPERSTOWN    NOT AVBL
VALLEY CITY    FOG       68  68 100 NE7       29.87R VSB 1/2
OAKES            N/A     66  66 100 NE3       29.84S
GWINNER          N/A     68  68 100 NE5       29.85R
SHEYENNE NWR     N/A     67  67  99 E3        29.95S
BUFFALO        NOT AVBL
WYNDMERE         N/A     70  70 100 CALM        N/A
 ***** THE ABOVE OBSERVATIONS ARE NON NWS ARE NOT QUALITY
       CONTROLLED AND MAY MIS-REPORT RAIN FOR SNOW...
$$

  *****  WEATHER ACROSS NORTHERN MINNESOTA  *****

CITY           SKY/WX    TMP DP  RH WIND       PRES   REMARKS
FLAG ISLAND    CLOUDY    68  66  94 CALM      29.89S
WARROAD        FOG       64  61  88 CALM      29.91R VSB 3/4
ROSEAU         HAZE      63  57  82 CALM      29.91R VSB 1/2
HALLOCK        FOG       64  63  94 N9        29.90R VSB 3/4
THF RVR FALLS  MOCLDY    70  68  94 NE9       29.88F
HALSTAD        NOT AVBL
FOSSTON        MOCLDY    70  66  88 CALM      29.89S
BAUDETTE       CLOUDY    71  69  93 NE3       29.91S
WASKISH        CLOUDY    70  66  88 CALM      29.91R
CROOKSTON      MOCLDY    70  68  94 E7        29.87S
$$
  *****  WEATHER ACROSS CENTRAL AND WEST MINNESOTA  *****

CITY           SKY/WX    TMP DP  RH WIND       PRES   REMARKS
BEMIDJI        HVY RAIN  70  69  97 SE5       29.91R
PARK RAPIDS    CLOUDY    74  70  87 SE7       29.90S
WADENA         CLOUDY    72  68  88 SE3       29.89R
DETROIT LAKES  PTCLDY    72  68  88 SE6       29.89S
MOORHEAD       CLEAR     72  68  88 SE3       29.85S
FERGUS FALLS   MOCLDY    73  70  88 SE6       29.85S
ELBOW LAKE     FAIR      72  70  95 SE7       29.86S
MORRIS MN      PTCLDY    73  72  94 SE7       29.85R
STAPLES        CLOUDY    72  66  83 S8        29.90F
WHEATON        CLEAR     66  66 100 CALM      29.85S FOG
$$
  *****  WEATHER ELSEWHERE ACROSS MINNESOTA  *****

CITY           SKY/WX    TMP DP  RH WIND       PRES   REMARKS
DULUTH         CLOUDY    65  61  87 E5        30.00R
INTRNTL FALLS  TSTM      67  66  97 VRB3      29.92R
ELY            TSTM      64  63  94 SE7       29.99F
CLOQUET        MOCLDY    63  59  88 CALM      29.99R
BRAINERD       CLOUDY    73  71  93 CALM      29.92F
HIBBING        CLOUDY    66  65  96 SE8       29.98F
ALEXANDRIA     MOCLDY    72  70  93 SE7       29.90S
SAINT CLOUD    CLOUDY    74  68  81 SE6       29.92S
MINNEAPOLIS    MOCLDY    77  70  79 SE9       29.94S
$$

  *****  WEATHER ACROSS SOUTH DAKOTA  *****

CITY           SKY/WX    TMP DP  RH WIND       PRES   REMARKS
SIOUX FALLS    CLEAR     75  68  78 S12       29.85S
BROOKINGS      CLEAR     72  66  83 SE12      29.87S
WATERTOWN      PTCLDY    73  69  87 S9        29.84F
HURON          PTCLDY    73  70  90 SE9       29.78S
SISSETON         N/A     68  67  96 SE3       29.82S
ABERDEEN       CLEAR     69  67  93 CALM      29.81S
MITCHELL       MOCLDY    72  69  90 SE8       29.80S
PIERRE         PTCLDY    69  66  90 E8        29.75F
MOBRIDGE       MOCLDY    72  72 100 E7        29.78S
RAPID CITY     CLOUDY    67  60  78 CALM      29.80F
$$

  *****  SOME WEATHER IN NEARBY STATES *****

CITY           SKY/WX    TMP DP  RH WIND       PRES   REMARKS
GLASGOW MT     RAIN      52  48  86 NE16      29.94F FOG
GREAT FALLS MT CLOUDY    49  48  97 NE14      29.93F
CHEYENNE WY    CLOUDY    64  47  53 NW5       30.00F
SCOTTSBLUFF NE LGT RAIN  71  55  56 SE12      29.88R
OMAHA NE       MOCLDY    77  69  76 S13       29.92S
DES MOINES IA  MOCLDY    76  68  76 S8        29.98S
DAVENPORT IA   PTCLDY    74  69  85 S5        30.02S
CHICAGO IL     PTCLDY    71  67  87 CALM      30.05R
EAU CLAIRE WI  MOCLDY    71  67  87 VRB3      30.00S
LA CROSSE WI   LGT RAIN  75  73  93 SE10      30.00F FOG
$$

  *****  SOME NATIONAL WEATHER *****

CITY           SKY/WX    TMP DP  RH WIND       PRES   REMARKS
LA GUARDIA NY  PTCLDY    68  60  75 E8        30.22S
RALEIGH NC     PTCLDY    70  68  93 NE6       30.09S FOG
ATLANTA GA     PTCLDY    74  69  85 E5        30.05S
NEW ORLEANS LA PTCLDY    77  73  87 CALM      29.98S
OKLAHOMA CITY  PTCLDY    75  67  76 SE8       29.97S
ALBUQUERQUE NM CLOUDY    64  58  80 E3        30.15F
SALT LAKE CITY MOCLDY    76  38  25 S17G26    29.81R
LOS ANGELES CA CLEAR     68  60  75 VRB3      29.87F
BOISE ID       CLEAR     49  43  80 NW6       29.89R
SEATTLE WA     PTCLDY    53  48  83 CALM      30.03R
$$

*** WEATHER ACROSS MANITOBA...SASKATCHEWAN AND ONTARIO ***
                ***ONTARIO***

CITY           SKY/WX    TMP DP  RH WIND       PRES   REMARKS
GERALDTON      PTCLDY    59  57  94 CALM      30.06S
THUNDER BAY    CLEAR     57  55  94 CALM      30.02F
SIOUX LOOKOUT  LGT RAIN  66  63  88 S9        29.92F
TORONTO        PTCLDY    70  61  73 E5        30.13S
BIG TROUT LK   PTCLDY    66  63  88 E6        29.93S
PICKLE LAKE    NOT AVBL
DRYDEN         LGT RAIN  68  66  94 S14G20    29.91F
KENORA         CLOUDY    66  66 100 S6        29.89F
$$
                *** MANITOBA***

CITY           SKY/WX    TMP DP  RH WIND       PRES   REMARKS
BRANDON        CLOUDY    59  55  88 NE5       29.98R
DAUPHIN        CLOUDY    57  52  82 NW5       30.00F
ISLAND LAKE    LGT RAIN  59  57  94 N8        29.95R
PILOT MOUND      N/A     57  57 100 N10         N/A
THE PAS        CLOUDY    59  48  67 N8G17     30.07S
THOMPSON       MOCLDY    50  46  87 NW3       30.07S
WINNIPEG       CLOUDY    64  64 100 W5        29.91R FOG
LYNN LAKE      CLOUDY    48  46  93 N6        30.13S
CHURCHILL      FOG       45  45 100 N10       30.10R VSB 1/4
$$
                ***SASKATCHEWAN***

CITY           SKY/WX    TMP DP  RH WIND       PRES   REMARKS
ESTEVAN        CLOUDY    54  52  94 NE18      29.96
KINDERSLEY     CLOUDY    48  45  87 NE9       30.11F
LLOYDMINSTER   CLOUDY    45  41  87 NE6       30.17F
PRINCE ALBERT  CLOUDY    50  45  81 N5        30.14R
REGINA         CLOUDY    52  46  82 N13       30.01F
YORKTON        CLEAR     48  46  93 N7        30.03S


USA.gov is the U.S. government's official web portal to all federal, state and local government web resources and services.